K5HAS Weather Reports


Display with metric or nautical units.
time (UTC)temp
F
wind
direction
speed
MPH
gust
MPH
rain 1hr
in
rain 24hr
in
rain mn
in
humidity
%
barometer
mb
20220627112207 78 12 2.0 4.0 0.00 0.00 0.00 92 1017.6
20220627111711 78 12 3.0 5.0 0.00 0.00 0.00 92 1017.6
20220627111207 78 3 4.0 6.0 0.00 0.00 0.00 92 1017.7
20220627110712 78 7 5.0 8.0 0.00 0.00 0.00 93 1017.7
20220627110207 78 21 5.0 8.0 0.00 0.00 0.00 92 1017.7
20220627105715 78 38 5.0 8.0 0.00 0.00 0.00 93 1017.6
20220627105208 78 348 5.0 8.0 0.00 0.00 0.00 93 1017.6
20220627104711 78 319 4.0 8.0 0.00 0.00 0.00 93 1017.6
20220627104207 78 1 4.0 9.0 0.00 0.00 0.00 93 1017.5
20220627103708 78 14 5.0 9.0 0.00 0.00 0.00 93 1017.5
20220627103206 78 342 5.0 10.0 0.00 0.00 0.00 93 1017.5
20220627102704 78 348 6.0 12.0 0.00 0.00 0.00 92 1017.7
20220627102205 78 4 7.0 12.0 0.00 0.00 0.00 92 1017.7
20220627101706 78 344 8.0 13.0 0.00 0.00 0.00 92 1017.7
20220627101204 78 349 8.0 13.0 0.00 0.00 0.00 93 1017.5
20220627100704 78 342 7.0 11.0 0.00 0.00 0.00 93 1017.5
20220627100204 78 328 5.0 8.0 0.00 0.00 0.00 92 1017.5
20220627095703 78 331 4.0 8.0 0.00 0.00 0.00 92 1017.1
20220627095202 78 324 3.0 6.0 0.00 0.00 0.00 92 1017.1
20220627094659 78 340 2.0 6.0 0.00 0.00 0.00 92 1017.1
20220627094156 78 288 3.0 5.0 0.00 0.00 0.00 92 1017.0
20220627093653 78 249 4.0 6.0 0.00 0.00 0.00 92 1017.0
20220627093154 78 247 4.0 6.0 0.00 0.00 0.00 92 1017.0
20220627092652 78 261 4.0 6.0 0.00 0.00 0.00 92 1016.9
20220627092152 79 247 4.0 8.0 0.00 0.00 0.00 92 1016.9
20220627091654 79 220 5.0 8.0 0.00 0.00 0.00 92 1016.9
20220627091154 79 257 5.0 8.0 0.00 0.00 0.00 91 1016.8
20220627090652 79 231 5.0 8.0 0.00 0.00 0.00 91 1016.8
20220627090153 79 234 4.0 8.0 0.00 0.00 0.00 91 1016.8
20220627085655 79 237 3.0 8.0 0.00 0.00 0.00 91 1016.9
20220627085151 79 243 3.0 8.0 0.00 0.00 0.00 91 1016.9
20220627084650 79 250 4.0 8.0 0.00 0.00 0.00 91 1016.9
20220627084144 80 228 4.0 8.0 0.00 0.00 0.00 91 1016.7
20220627083634 80 244 5.0 11.0 0.00 0.00 0.00 91 1016.7
20220627083127 80 234 6.0 11.0 0.00 0.00 0.00 91 1016.7
20220627082621 80 217 8.0 11.0 0.00 0.00 0.00 91 1016.8
20220627082117 80 234 9.0 12.0 0.00 0.00 0.00 91 1016.8
20220627081616 80 213 7.0 14.0 0.00 0.00 0.00 91 1016.8
20220627081114 80 229 6.0 14.0 0.00 0.00 0.00 91 1016.7
20220627080612 80 217 6.0 14.0 0.00 0.00 0.00 91 1016.7
20220627080109 80 226 9.0 14.0 0.00 0.00 0.00 91 1016.7
20220627075609 80 226 9.0 14.0 0.00 0.00 0.00 92 1016.7
20220627075111 80 222 9.0 12.0 0.00 0.00 0.00 92 1016.7
20220627074609 80 215 8.0 12.0 0.00 0.00 0.00 92 1016.7
20220627074109 80 228 8.0 12.0 0.00 0.00 0.00 92 1016.9
20220627073611 80 220 9.0 12.0 0.00 0.00 0.00 92 1016.9
20220627073110 80 203 8.0 11.0 0.00 0.00 0.00 92 1016.9
20220627072608 80 220 7.0 11.0 0.00 0.00 0.00 92 1016.8
20220627072053 80 212 5.0 10.0 0.00 0.00 0.00 92 1016.8
20220627071547 80 234 4.0 7.0 0.00 0.00 0.00 92 1016.8
20220627071041 80 225 4.0 9.0 0.00 0.00 0.00 91 1016.8
20220627070534 80 243 3.0 9.0 0.00 0.00 0.00 92 1016.8
20220627070031 80 237 4.0 9.0 0.00 0.00 0.00 92 1016.8
20220627065531 80 259 6.0 10.0 0.00 0.00 0.00 92 1017.0
20220627065031 80 224 6.0 10.0 0.00 0.00 0.00 93 1017.0
20220627064530 80 189 5.0 9.0 0.00 0.00 0.00 93 1017.0
20220627064031 80 190 4.0 8.0 0.00 0.00 0.00 93 1017.0
20220627063532 79 197 4.0 8.0 0.00 0.00 0.00 92 1017.0
20220627063031 79 207 4.0 7.0 0.00 0.00 0.00 92 1017.0
20220627062531 79 191 3.0 8.0 0.00 0.00 0.00 92 1016.8
20220627062030 79 167 3.0 8.0 0.00 0.00 0.00 92 1016.8
20220627061531 79 192 4.0 8.0 0.00 0.00 0.00 92 1016.8
20220627061032 79 186 4.0 8.0 0.00 0.00 0.00 92 1016.7
20220627060529 78 188 4.0 7.0 0.00 0.00 0.00 92 1016.7
20220627060029 78 199 4.0 7.0 0.00 0.00 0.00 92 1016.7
20220627055528 78 199 3.0 7.0 0.00 0.00 0.00 91 1016.7
20220627055027 78 201 2.0 7.0 0.00 0.00 0.00 90 1016.7
20220627054517 78 168 2.0 4.0 0.00 0.00 0.00 90 1016.7
20220627054011 78 90 2.0 4.0 0.00 0.00 0.00 90 1016.8
20220627053501 78 161 1.0 3.0 0.00 0.00 0.00 90 1016.8
20220627052951 78 161 1.0 4.0 0.00 0.00 0.00 90 1016.8
20220627052441 78 160 2.0 4.0 0.00 0.00 0.00 89 1016.8
20220627051936 78 160 2.0 4.0 0.00 0.00 0.00 89 1016.8
20220627051434 78 90 2.0 4.0 0.00 0.00 0.00 89 1016.7
20220627050936 78 90 2.0 4.0 0.00 0.00 0.00 89 1016.7
20220627050433 78 159 2.0 4.0 0.00 0.00 0.00 89 1016.7
20220627045935 78 159 3.0 4.0 0.00 0.00 0.00 89 1016.7
20220627045434 78 159 3.0 5.0 0.00 0.00 0.00 89 1016.7
20220627044933 78 159 3.0 5.0 0.00 0.00 0.00 88 1016.7
20220627044434 78 90 4.0 5.0 0.00 0.00 0.00 88 1016.6
20220627043932 78 158 4.0 5.0 0.00 0.00 0.00 88 1016.6
20220627043431 78 155 3.0 5.0 0.00 0.00 0.00 87 1016.6
20220627042931 78 90 2.0 4.0 0.00 0.00 0.00 88 1016.5
20220627042418 78 162 1.0 3.0 0.00 0.00 0.00 88 1016.5
20220627041903 79 162 1.0 3.0 0.00 0.00 0.00 88 1016.5
20220627041403 79 162 2.0 3.0 0.00 0.00 0.00 88 1016.3
20220627040903 79 162 1.0 5.0 0.00 0.00 0.00 87 1016.3
20220627040404 79 162 2.0 5.0 0.00 0.00 0.00 87 1016.3
20220627035902 79 162 3.0 5.0 0.00 0.00 0.00 87 1016.3
20220627035403 79 163 3.0 6.0 0.00 0.00 0.00 87 1016.3
20220627034904 79 163 4.0 6.0 0.00 0.00 0.00 87 1016.3
20220627034358 79 90 4.0 6.0 0.00 0.00 0.00 86 1016.4
20220627033846 79 90 4.0 6.0 0.00 0.00 0.00 86 1016.4
20220627033336 79 90 3.0 6.0 0.00 0.00 0.00 86 1016.4
20220627032830 79 90 3.0 6.0 0.00 0.00 0.00 86 1016.2
20220627032320 79 151 3.0 6.0 0.00 0.00 0.00 86 1016.2
20220627031814 80 90 3.0 6.0 0.00 0.00 0.00 85 1016.2
20220627031304 80 145 4.0 6.0 0.00 0.00 0.00 85 1016.1
20220627030754 80 145 4.0 6.0 0.00 0.00 0.00 84 1016.1
20220627030248 80 143 4.0 6.0 0.00 0.00 0.00 83 1016.1
20220627025741 80 152 4.0 6.0 0.00 0.00 0.00 83 1016.1
20220627025241 81 147 3.0 4.0 0.00 0.00 0.00 83 1016.1
20220627024739 81 146 3.0 4.0 0.00 0.00 0.00 82 1016.1
20220627024241 81 147 2.0 4.0 0.00 0.00 0.00 82 1016.0
20220627023737 81 147 3.0 6.0 0.00 0.00 0.00 82 1016.0
20220627023236 81 147 3.0 6.0 0.00 0.00 0.00 82 1016.0
20220627022735 82 145 3.0 6.0 0.00 0.00 0.00 81 1015.7
20220627022230 82 143 4.0 7.0 0.00 0.00 0.00 81 1015.7
20220627021730 82 147 4.0 7.0 0.00 0.00 0.00 80 1015.7
20220627021232 82 90 4.0 8.0 0.00 0.00 0.00 80 1015.6
20220627020731 83 90 4.0 8.0 0.00 0.00 0.00 79 1015.6
20220627020227 83 139 5.0 9.0 0.00 0.00 0.00 79 1015.6
20220627015722 83 90 5.0 9.0 0.00 0.00 0.00 78 1015.6
20220627015216 83 163 6.0 10.0 0.00 0.00 0.00 77 1015.6
20220627014707 84 155 7.0 11.0 0.00 0.00 0.00 77 1015.6
20220627014156 84 90 7.0 12.0 0.00 0.00 0.00 76 1015.5
20220627013650 84 160 8.0 12.0 0.00 0.00 0.00 75 1015.5
20220627013140 85 90 9.0 14.0 0.00 0.00 0.00 75 1015.5
20220627012635 85 90 9.0 15.0 0.00 0.00 0.00 75 1015.4
20220627012124 85 90 10.0 15.0 0.00 0.00 0.00 74 1015.4
20220627011620 86 146 9.0 15.0 0.00 0.00 0.00 73 1015.4
20220627011111 86 90 9.0 13.0 0.00 0.00 0.00 72 1015.2
20220627010606 86 154 10.0 15.0 0.00 0.00 0.00 72 1015.2
20220627010048 87 90 10.0 16.0 0.00 0.00 0.00 71 1015.2
20220627005541 87 90 9.0 14.0 0.00 0.00 0.00 70 1015.2
20220627005032 87 90 9.0 17.0 0.00 0.00 0.00 69 1015.2
20220627004521 88 90 11.0 17.0 0.00 0.00 0.00 68 1015.2
20220627004015 88 90 11.0 17.0 0.00 0.00 0.00 67 1015.0
20220627003505 89 90 12.0 17.0 0.00 0.00 0.00 67 1015.0
20220627003002 89 90 11.0 16.0 0.00 0.00 0.00 65 1015.0
20220627002503 89 90 10.0 19.0 0.00 0.00 0.00 65 1015.0
20220627002004 89 90 9.0 19.0 0.00 0.00 0.00 64 1015.0
20220627001502 90 90 11.0 19.0 0.00 0.00 0.00 64 1014.8
20220627000959 90 90 11.0 20.0 0.00 0.00 0.00 62 1014.8
20220627000503 90 120 11.0 20.0 0.00 0.00 0.00 62 1014.8
20220627000002 91 90 10.0 16.0 0.00 0.00 0.00 61 1014.7
20220626235501 91 90 10.0 17.0 0.00 0.00 0.00 62 1014.7
20220626235001 91 124 10.0 17.0 0.00 0.00 0.00 62 1014.7
20220626234501 91 135 9.0 18.0 0.00 0.00 0.00 62 1014.6
20220626233946 92 126 10.0 18.0 0.00 0.00 0.00 61 1014.6
20220626233441 92 90 12.0 18.0 0.00 0.00 0.00 61 1014.6
20220626232939 92 90 11.0 18.0 0.00 0.00 0.00 61 1014.5
20220626232439 92 150 10.0 21.0 0.00 0.00 0.00 60 1014.5
20220626231941 93 90 11.0 21.0 0.00 0.00 0.00 60 1014.5
20220626231441 93 90 12.0 21.0 0.00 0.00 0.00 59 1014.5
20220626230939 93 90 11.0 21.0 0.00 0.00 0.00 60 1014.5
20220626230441 94 90 11.0 17.0 0.00 0.00 0.00 59 1014.5
20220626225939 94 161 12.0 17.0 0.00 0.00 0.00 59 1014.5
20220626225431 94 90 12.0 17.0 0.00 0.00 0.00 58 1014.5
20220626224926 94 90 11.0 17.0 0.00 0.00 0.00 58 1014.5
20220626224419 94 90 10.0 18.0 0.00 0.00 0.00 58 1014.5
20220626223905 95 159 10.0 18.0 0.00 0.00 0.00 58 1014.5
20220626223358 95 90 10.0 18.0 0.00 0.00 0.00 58 1014.5
20220626222848 94 90 12.0 18.0 0.00 0.00 0.00 59 1014.5
20220626222347 95 90 11.0 18.0 0.00 0.00 0.00 58 1014.5
20220626221847 95 90 10.0 19.0 0.00 0.00 0.00 58 1014.5
20220626221350 95 90 11.0 19.0 0.00 0.00 0.00 57 1014.6
20220626220847 95 90 12.0 21.0 0.00 0.00 0.00 58 1014.6
20220626220348 95 90 11.0 21.0 0.00 0.00 0.00 57 1014.6
20220626215847 96 90 10.0 20.0 0.00 0.00 0.00 56 1014.8
20220626215347 95 90 11.0 20.0 0.00 0.00 0.00 57 1014.8
20220626214845 95 159 12.0 20.0 0.00 0.00 0.00 56 1014.8
20220626214340 96 90 11.0 20.0 0.00 0.00 0.00 55 1014.9
20220626213828 96 90 11.0 19.0 0.00 0.00 0.00 55 1014.9
20220626213318 96 90 11.0 19.0 0.00 0.00 0.00 56 1014.9
20220626212813 96 90 10.0 17.0 0.00 0.00 0.00 57 1015.0
20220626212302 96 90 10.0 17.0 0.00 0.00 0.00 56 1015.0
20220626211753 96 124 9.0 18.0 0.00 0.00 0.00 57 1015.0
20220626211246 96 139 9.0 18.0 0.00 0.00 0.00 56 1015.2
20220626210732 97 127 9.0 17.0 0.00 0.00 0.00 55 1015.2
20220626210227 97 195 9.0 17.0 0.00 0.00 0.00 55 1015.2
20220626205716 96 90 9.0 18.0 0.00 0.00 0.00 56 1015.5
20220626205208 94 150 9.0 18.0 0.00 0.00 0.00 58 1015.5
20220626204701 95 139 9.0 21.0 0.00 0.00 0.00 57 1015.5
20220626204150 97 109 10.0 21.0 0.00 0.00 0.00 55 1015.5
20220626203637 98 90 11.0 21.0 0.00 0.00 0.00 53 1015.5
20220626203127 98 90 11.0 21.0 0.00 0.00 0.00 54 1015.5
20220626202617 97 103 10.0 19.0 0.00 0.00 0.00 57 1015.5
20220626202107 97 191 9.0 19.0 0.00 0.00 0.00 54 1015.5
20220626201600 98 139 7.0 14.0 0.00 0.00 0.00 53 1015.5
20220626201047 98 166 7.0 14.0 0.00 0.00 0.00 50 1015.5
20220626200537 96 90 8.0 14.0 0.00 0.00 0.00 55 1015.5
20220626200035 98 112 9.0 15.0 0.00 0.00 0.00 52 1015.5
20220626195535 99 90 9.0 15.0 0.00 0.00 0.00 52 1015.5
20220626195035 98 176 9.0 16.0 0.00 0.00 0.00 52 1015.5
20220626194536 99 175 9.0 16.0 0.00 0.00 0.00 51 1015.5
20220626194035 98 90 8.0 15.0 0.00 0.00 0.00 52 1015.6
20220626193535 98 142 7.0 14.0 0.00 0.00 0.00 47 1015.6
20220626193035 99 95 5.0 12.0 0.00 0.00 0.00 47 1015.6
20220626192534 99 150 4.0 11.0 0.00 0.00 0.00 46 1015.9
20220626192035 98 107 6.0 13.0 0.00 0.00 0.00 45 1015.9
20220626191523 99 74 6.0 14.0 0.00 0.00 0.00 44 1015.9
20220626191024 99 85 5.0 14.0 0.00 0.00 0.00 45 1016.0
20220626190527 99 27 6.0 14.0 0.00 0.00 0.00 46 1016.0
20220626190024 99 72 6.0 14.0 0.00 0.00 0.00 44 1016.0
20220626185524 99 45 6.0 12.0 0.00 0.00 0.00 45 1016.0
20220626185022 99 85 4.0 12.0 0.00 0.00 0.00 47 1016.0
20220626184525 98 85 3.0 13.0 0.00 0.00 0.00 47 1016.0
20220626184022 97 31 4.0 13.0 0.00 0.00 0.00 46 1016.1
20220626183514 97 62 5.0 13.0 0.00 0.00 0.00 47 1016.1
20220626183017 99 85 6.0 13.0 0.00 0.00 0.00 46 1016.1
20220626182515 98 120 6.0 12.0 0.00 0.00 0.00 45 1016.3
20220626182015 97 85 8.0 13.0 0.00 0.00 0.00 45 1016.3
20220626181515 98 105 7.0 13.0 0.00 0.00 0.00 46 1016.3
20220626181015 97 61 5.0 11.0 0.00 0.00 0.00 46 1016.6
20220626180514 97 107 5.0 11.0 0.00 0.00 0.00 46 1016.6
20220626180014 97 95 4.0 10.0 0.00 0.00 0.00 46 1016.6
20220626175507 96 122 5.0 11.0 0.00 0.00 0.00 53 1016.6
20220626175000 95 10 4.0 11.0 0.00 0.00 0.00 54 1016.6
20220626174508 94 20 3.0 8.0 0.00 0.00 0.00 57 1016.6
20220626174001 93 229 2.0 6.0 0.00 0.00 0.00 57 1016.6
20220626173504 94 235 3.0 6.0 0.00 0.00 0.00 58 1016.6
20220626173001 93 235 3.0 6.0 0.00 0.00 0.00 59 1016.6
20220626172516 93 244 3.0 6.0 0.00 0.00 0.00 59 1016.6
20220626172002 93 263 3.0 6.0 0.00 0.00 0.00 57 1016.6
20220626171506 93 265 3.0 6.0 0.00 0.00 0.00 60 1016.6
20220626170959 94 284 3.0 6.0 0.00 0.00 0.00 57 1016.6
20220626165950 94 338 4.0 6.0 0.00 0.00 0.00 58 1016.6
20220626165444 93 278 4.0 6.0 0.00 0.00 0.00 60 1016.6
20220626164938 92 297 4.0 7.0 0.00 0.00 0.00 61 1016.6
20220626164430 92 257 4.0 7.0 0.00 0.00 0.00 65 1016.7
20220626163929 92 237 4.0 7.0 0.00 0.00 0.00 64 1016.7
20220626163430 93 255 4.0 7.0 0.00 0.00 0.00 65 1016.7
20220626162927 92 239 4.0 7.0 0.00 0.00 0.00 65 1016.7
20220626162427 91 282 3.0 7.0 0.00 0.00 0.00 67 1016.7
20220626161934 92 272 3.0 6.0 0.00 0.00 0.00 65 1016.7
20220626161428 92 288 3.0 6.0 0.00 0.00 0.00 65 1016.9
20220626160927 91 266 2.0 8.0 0.00 0.00 0.00 67 1016.9
20220626160427 89 220 2.0 8.0 0.00 0.00 0.00 70 1016.9
20220626155928 88 220 4.0 8.0 0.00 0.00 0.00 70 1016.8
20220626155430 89 219 4.0 8.0 0.00 0.00 0.00 69 1016.8
20220626154927 89 220 3.0 8.0 0.00 0.00 0.00 71 1016.8
20220626154426 90 209 2.0 7.0 0.00 0.00 0.00 67 1016.7
20220626153915 90 250 2.0 7.0 0.00 0.00 0.00 70 1016.7
20220626153409 89 169 4.0 7.0 0.00 0.00 0.00 70 1016.7
20220626152901 89 161 4.0 7.0 0.00 0.00 0.00 72 1016.6
20220626152350 87 90 3.0 7.0 0.00 0.00 0.00 72 1016.6
20220626151844 88 129 2.0 7.0 0.00 0.00 0.00 71 1016.6
20220626151335 88 153 3.0 7.0 0.00 0.00 0.00 70 1016.8
20220626150827 89 54 3.0 7.0 0.00 0.00 0.00 72 1016.8
20220626150322 87 106 2.0 6.0 0.00 0.00 0.00 74 1016.8
20220626145820 86 99 2.0 7.0 0.00 0.00 0.00 76 1016.9
20220626145318 87 128 2.0 7.0 0.00 0.00 0.00 74 1016.9
20220626144819 87 114 2.0 6.0 0.00 0.00 0.00 78 1016.9
20220626144317 86 115 3.0 6.0 0.00 0.00 0.00 77 1017.1
20220626143815 87 115 4.0 6.0 0.00 0.00 0.00 78 1017.1
20220626143315 87 116 4.0 6.0 0.00 0.00 0.00 76 1017.1
20220626142818 87 119 3.0 6.0 0.00 0.00 0.00 78 1017.1
20220626142307 86 143 3.0 6.0 0.00 0.00 0.00 80 1017.1
20220626141806 86 95 3.0 7.0 0.00 0.00 0.00 80 1017.1
20220626141305 85 90 3.0 7.0 0.00 0.00 0.00 79 1016.9
20220626140805 85 43 3.0 6.0 0.00 0.00 0.00 81 1016.9
20220626140307 84 40 3.0 6.0 0.00 0.00 0.00 83 1016.9
20220626135803 84 42 4.0 6.0 0.00 0.00 0.00 84 1017.0
20220626135302 83 45 5.0 8.0 0.00 0.00 0.00 85 1017.0
20220626134803 83 51 5.0 8.0 0.00 0.00 0.00 85 1017.0
20220626134251 82 47 6.0 8.0 0.00 0.00 0.00 86 1016.9
20220626133742 81 18 5.0 8.0 0.00 0.00 0.00 87 1016.9
20220626133231 81 53 5.0 8.0 0.00 0.00 0.00 89 1016.9
20220626132725 80 37 5.0 8.0 0.00 0.00 0.00 90 1016.8
20220626132215 79 36 5.0 7.0 0.00 0.00 0.00 92 1016.8
20220626131709 78 29 5.0 7.0 0.00 0.00 0.00 93 1016.8
20220626131159 78 45 5.0 7.0 0.00 0.00 0.00 93 1016.6
20220626130645 78 47 5.0 7.0 0.00 0.00 0.00 94 1016.6
20220626130139 77 41 4.0 6.0 0.00 0.00 0.00 94 1016.6
20220626125632 77 45 4.0 6.0 0.00 0.00 0.00 95 1016.5
20220626125124 76 42 4.0 7.0 0.00 0.00 0.00 95 1016.5
20220626124613 76 36 5.0 8.0 0.00 0.00 0.00 95 1016.5
20220626124103 76 28 4.0 8.0 0.00 0.00 0.00 95 1016.2
20220626123549 75 35 3.0 5.0 0.00 0.00 0.00 95 1016.2
20220626123040 75 48 3.0 5.0 0.00 0.00 0.00 95 1016.2
20220626122530 75 49 3.0 6.0 0.00 0.00 0.00 95 1016.1
20220626122019 74 50 3.0 6.0 0.00 0.00 0.00 95 1016.1
20220626121514 74 50 3.0 7.0 0.00 0.00 0.00 95 1016.1
20220626121002 74 39 4.0 7.0 0.00 0.00 0.00 95 1016.1
20220626120454 74 32 3.0 5.0 0.00 0.00 0.00 95 1016.1
20220626115942 74 45 3.0 5.0 0.00 0.00 0.00 95 1016.0
20220626115436 74 46 4.0 5.0 0.00 0.00 0.00 95 1016.0
20220626114927 74 46 3.0 5.0 0.00 0.00 0.00 95 1016.0
20220626114416 74 46 3.0 5.0 0.00 0.00 0.00 95 1016.0
20220626113910 74 44 3.0 4.0 0.00 0.00 0.00 95 1016.0
20220626113402 74 44 3.0 5.0 0.00 0.00 0.00 95 1016.0
20220626112846 74 45 4.0 5.0 0.00 0.00 0.00 94 1016.0